www.pogodaiklimat.ru

Погода и климат >> Архив погоды >> Россия >> Якутия >> Покровск


ПОГОДА в Покровске

  • Прогноз погоды в Покровске
  • Монитор погоды в Покровске
  • Климат города

АРХИВ ПОГОДЫ в Покровске

Время (UTC), дата Ветер
(напр.,м/с)
 
Видим.   Явления Облачность Т
(С)
Тd
(С)
f
(%)
Тe
(С)
Тes
(С)
Комфортность P
(гПа)
Po
(гПа)
Тmin
(С)
Tmax
(С)
R
(мм)
R24
(мм)
S
(см)
06 17.06 Ю 2 50 км 8/6 600 м
[Cb calv Ci fib]
+22.0 +6.8 37 +23 +27 комфорт 999.5 985.7
09 17.06 З 1 50 км 10/8 600 м
[Cb calv Ci fib]
+21.4 +5.3 35 +22 +23 комфорт 999.7 985.8
12 17.06 СЗ 6 50 км {дождь} 9/9 1000 м
[Sc]
+17.7 +7.9 53 +17 +17 1000.3 986.3 +23.3 0.0
15 17.06 З 1
{11}
50 км слабый дождь 10/0
[As op]
+11.0 +10.6 97 +11 +11 1000.9 986.6
18 17.06 З 1 50 км {дождь} 10/10 1000 м
[Sc]
+10.8 +10.2 96 +10 +10 1001.3 987.0
21 17.06 ЮЗ 2 50 км {дождь} 10/10 1000 м
[Sc]
+11.0 +10.2 95 +10 +10 1001.9 987.5
00 18.06 Ю 4 50 км {дождь} 10/10 600 м
[Sc]
+12.0 +11.4 96 +10 +10 1003.1 988.8 +10.3 6
03 18.06 Ю 3 50 км 9/9 600 м
[Sc]
+14.0 +11.4 84 +13 +14 1004.2 990.1
06 18.06 В 4 50 км 10/6 600 м
[Cb calv Ci fib]
+16.4 +11.4 72 +16 +18 1004.3 990.2
09 18.06 В 3 50 км 10/6 600 м
[Cu med, cong Ac trans Ci fib]
+15.7 +10.4 71 +15 +16 1004.8 990.7
12 18.06 В 2 50 км 8/6 600 м
[Sc Ac trans]
+14.0 +9.5 74 +14 +14 1006.2 992.0 +17.9
15 18.06 В 2 50 км 8/5 600 м
[Sc Ac trans]
+11.9 +10.2 89 +11 +11 1006.5 992.2
18 18.06 СЗ 1 50 км 8/8 600 м
[Sc]
+10.8 +9.8 94 +10 +10 1007.2 992.7
21 18.06 С 2 50 км 8/8 600 м
[Sc]
+10.8 +10.8 100 +9 +10 1007.6 993.1
00 19.06 В 3 50 км 6/3 600 м
[Sc Ac trans]
+15.2 +10.9 75 +15 +18 1007.3 993.0 +9.8
03 19.06 СВ 3 50 км 6/5 600 м
[Cb calv Ac trans]
+18.3 +12.8 70 +19 +24 1006.6 992.5
06 19.06 СВ 4 50 км 8/5 600 м
[Cb calv Ac trans]
+20.1 +9.4 50 +21 +24 комфорт 1005.7 991.8
09 19.06 СВ 2 50 км 8/4 600 м
[Cu med, cong Ac trans Ci fib]
+20.8 +6.1 38 +22 +24 комфорт 1004.9 991.0
12 19.06 З 1 50 км 8/4 600 м
[Cu med, cong Ac trans Ci fib]
+17.8 +11.8 68 +19 +19 1004.9 990.9 +21.6
15 19.06 З 2 50 км 10/5 600 м
[Sc Ac trans]
+12.6 +10.1 85 +12 +12 1004.5 990.2
18 19.06 ЮЗ 2 50 км 8/6 600 м
[Sc Ac trans]
+10.6 +8.6 87 +9 +9 1004.5 990.1
21 19.06 ЮЗ 1 50 км 9/5 1000 м
[Sc Ac trans]
+10.0 +9.0 93 +9 +10 1004.5 990.1
00 20.06 штиль 0 50 км 8/4 1000 м
[Sc Ac trans]
+16.1 +9.2 64 +16 +20 1004.3 990.2 +9.4
03 20.06 В 1 50 км 10/3 600 м
[Cu med, cong Ac trans Ci fib]
+20.9 +8.1 44 +23 +29 комфорт 1003.4 989.5
06 20.06 СВ 2 50 км 8/6 600 м
[Cu med, cong Ci fib]
+23.1 +6.9 35 +24 +28 комфорт 1001.9 988.1
09 20.06 ЮВ 4 50 км 3/1 600 м
[Cu med, cong Ci fib]
+22.3 +6.8 37 +23 +25 комфорт 1001.0 987.2
12 20.06 ЮВ 3 50 км 4/3 600 м
[Sc Ci fib]
+19.6 +7.5 45 +21 +21 комфорт 1000.2 986.2 +24.4
15 20.06 СВ 1 50 км 6/6 600 м
[Sc]
+14.5 +9.0 70 +15 +15 1001.7 987.6
18 20.06 В 1 50 км 4/4 600 м
[Sc]
+12.4 +7.7 73 +13 +13 1001.9 987.7
21 20.06 В 2 50 км 3/3 600 м
[Sc]
+13.5 +7.9 69 +13 +14 1002.3 988.0
00 21.06 В 3 50 км 3/1 1000 м
[Cu med, cong Ci fib]
+15.8 +7.9 59 +15 +22 1001.9 987.8 +9.8
03 21.06 В 5 50 км 8/8 600 м
[Sc]
+15.6 +8.8 64 +14 +16 1001.9 987.7
06 21.06 В 4 50 км 10/10 600 м
[Cb calv]
+16.0 +8.6 61 +15 +15 1001.6 987.5
09 21.06 СВ 2 50 км 10/10 1000 м
[Sc]
+17.0 +11.1 68 +17 +17 1001.3 987.3
12 21.06 В 3 50 км 10/10 600 м
[Cb calv]
+16.2 +10.8 70 +16 +16 1001.9 987.8 +17.8
15 21.06 СВ 2 50 км 10/10 1000 м
[Sc]
+15.3 +10.2 72 +15 +15 1002.5 988.3
18 21.06 СЗ 2 50 км 8/4 1000 м
[Sc Ac trans]
+12.7 +9.6 81 +12 +12 1002.8 988.5
21 21.06 СВ 2 50 км 9/6 1000 м
[Sc Ac trans]
+13.2 +10.5 84 +12 +13 1003.4 989.1
00 22.06 СВ 3 50 км {дождь} 9/9 600 м
[Sc]
+14.3 +10.5 78 +13 +14 1004.4 990.2 +10.2 0.0
03 22.06 СВ 4 50 км 9/9 600 м
[Sc]
+15.8 +10.9 73 +15 +16 1004.8 990.7
06 22.06 С 2 50 км 10/10 600 м
[Sc]
+16.8 +11.7 72 +17 +17 1005.4 991.3
09 22.06 штиль 0 50 км 10/10 600 м
[Sc]
+17.3 +12.0 71 +17 +17 1005.9 991.8
12 22.06 СВ 2 50 км 10/10 600 м
[Sc]
+16.6 +12.8 78 +17 +17 1006.9 992.7 +18.6
15 22.06 СВ 2 50 км 10/10 600 м
[Sc]
+14.6 +11.0 79 +14 +14 1008.6 994.3
18 22.06 В 1 50 км 8/6 600 м
[Sc Ac trans]
+13.1 +10.6 85 +13 +13 1009.2 994.8
21 22.06 С 2 50 км 8/8 600 м
[Sc]
+12.5 +10.8 89 +12 +12 1010.4 996.0
00 23.06 СВ 3 50 км 10/10 600 м
[Sc]
+15.4 +11.7 79 +15 +15 1011.3 997.0 +9.5
03 23.06 СВ 3 50 км 10/5 600 м
[Cu med, cong Ac trans]
+17.5 +10.2 62 +18 +20 1011.1 996.9
06 23.06 В 2 50 км 8/4 600 м
[Cu med, cong Ac trans Cc]
+19.6 +10.1 54 +21 +26 комфорт 1010.6 996.5
09 23.06 В 1 50 км 8/3 600 м
[Cu med, cong Ac trans Ci fib]
+20.4 +8.9 48 +23 +25 комфорт 1010.1 996.1
12 23.06 Ю 1 50 км 9/3 1000 м
[Sc diur, vesp Ci fib]
+19.6 +12.5 64 +22 +22 комфорт 1010.4 996.4 +21.8
15 23.06 ЮЗ 2 50 км 6/0
[Ac trans Ci fib]
+11.1 +9.5 90 +10 +10 1011.0 996.5
18 23.06 ЮЗ 2 50 км 8/5 600 м
[Sc Ac trans]
+10.2 +8.4 89 +9 +9 1011.2 996.7
21 23.06 ЮЗ 1 50 км 9/4 600 м
[Sc Ac trans]
+12.6 +10.3 86 +13 +13 1011.3 996.9
00 24.06 ЮВ 1 50 км 9/3 600 м
[Sc Ac trans]
+17.0 +12.9 77 +18 +21 1011.2 997.0 +10.2

 

Местоположение метеостанции Покровск (Якутия, Россия): широта 61.48 долгота 129.10 высота над уровнем моря 121 м.

В архиве по умолчанию представлена погода в Покровске за последнюю неделю. Архивные данные за месяц целиком и за предыдущие месяцы, начиная с января 2011 года, Вы можете получить, выбрав интересующий диапазон дат из раскрывающегося списка и нажав кнопку "Ввод!".


*Определитесь, кто Вы:
робот инопланетянин человек

Внимание! Время в таблицах - всемирное. Для получения местного времени необходимо прибавить поправку, которая в Покровске равна 9 ч.

Смотрите также архив погоды в соседних городах и на ближайших метеорологических станциях:

Погода в Якутске (Якутия, Россия) (64 км)
Погода в Тегюльте (Якутия, Россия) (122 км)
Погода в Намцах (Якутия, Россия) (140 км)
Погода в Бердигестяхе (Якутия, Россия) (141 км)
Погода в Амге (Якутия, Россия) (163 км)
Погода в Чурапче (Якутия, Россия) (194 км)
Погода в Исите (Якутия, Россия) (217 км)
Погода в Батамае (Якутия, Россия) (227 км)
Погода в Буяге (Якутия, Россия) (232 км)
Погода в Тонгулахе (Якутия, Россия) (247 км)

Пояснения к столбцам:

Ветер - указаны скорость ветра в м/с - средняя за 10 мин, порывы в срок и между сроками (в фигурных скобках) и направление, откуда дует ветер: С - северный, СВ - северо-восточный, В - восточный, ЮВ - юго-восточный, Ю - южный, ЮЗ - юго-западный, З - западный, СЗ - северо-западный.
Видимость - горизонтальная дальность видимости в метрах или километрах. При видимости от 1 до 10 км при отсутствии осадков обычно наблюдается дымка, при ухудшении видимости до 1 км и менее - туман. В сухую погоду видимость может ухудшаться дымом, пылью или мглою.
Явления - указаны атмосферные явления, наблюдавшиеся в срок или в последний час перед сроком; фигурными скобками обозначены явления, наблюдавшиеся между сроками (за 1-3 часа до срока); квадратными скобками обозначены град или гололедные отложения с указанием их диаметра в мм.
Облачность - указаны через наклонную черту общая и нижняя облачность в баллах и высота нижней границы облаков в метрах; квадратными скобками обозначены формы облаков: Ci - перистые, Cs - перисто-слоистые, Cc - перисто-кучевые, Ac - высококучевые, As - высокослоистые, Sc - слоисто-кучевые, Ns - слоисто-дождевые, Cu - кучевые, Cb - кучево-дождевые. Подробнее классификацию облаков см. в Атласе облаков (PDF).
T - Температура воздуха - температура, измеренная на высоте 2 м над землей.
Td - Температура точки росы - температура, при понижении до которой содержащийся в воздухе водяной пар достигнет насыщения.
f - Относительная влажность воздуха - влажноcть воздуха, измеренная на высоте 2 м над землей.
Te - Эффективная температура - температура, которую ощущает одетый по сезону человек в тени. Характеристика душности погоды. При расчете учитывается влияние влажности воздуха и скорости ветра на теплоощущения человека.
Tes - Эффективная температура на солнце - температура, которую ощущает человек, с поправкой на солнечный нагрев. Характеристика знойности погоды. Зависит от высоты солнца над горизонтом, облачности и скорости ветра. Ночью, в пасмурную погоду, а также при ветре 12 м/с и более поправка равна нулю.
P - Атмосферное давление - приведенное к уровню моря атмосферное давление.
Po - Атмосферное давление - измеренное на уровне метеостанции атмосферное давление.
Tmin - Минимальная температура - минимум температуры воздуха на высоте 2 м над землей.
Tmax - Максимальная температура - максимум температуры воздуха на высоте 2 м над землей.
R - Количество осадков - Количество выпавших осадков за период времени, мм. При наведении курсора мыши на число - период времени, за который выпало указанное количество осадков.
R24 - Количество осадков - Количество выпавших осадков за 24 часа, мм.
S - Снежный покров - Высота снежного покрова, см. При наведении курсора мыши на число - состояние снежного покрова и степень покрытия местности в баллах.